Torna al catalogo

IRIDIUM 159

AttivoComunicazioniPO
NORAD 43578·PAYLOAD·🇺🇸 United States

Lanciato Jul 25, 2018 da Vandenberg Space Force Base

Loading…

Prossimi Passaggi (prossime 24 ore)

TLE

AggiornatoSource: CelesTrak SupGP

Epoca: Sep 14, 2026, 09:08 UTC

1 43578C 18061K   26257.38090278 -.00002961  00000+0 -10587-2 0  2571
2 43578  86.4010  19.4003 0002280  96.9955 317.3457 14.34221685    17

Traccia IRIDIUM 159 in tempo reale con AllMySat

Download on the App Store